{"data":{"norad_id":39058,"epoch":"2026-05-25T04:41:30.297984Z","epoch_age_seconds":54104,"freshness":"FRESH","line1":"1 39058U 13001B   26145.19548956  .00000126  00000+0  82436-3 0  9999","line2":"2 39058  82.5002 229.2331 0017602  66.0863 294.2058 12.44024910598730","mean_motion":12.4402491,"eccentricity":0.0017602,"inclination_deg":82.5002,"raan_deg":229.2331,"arg_perigee_deg":66.0863,"mean_anomaly_deg":294.2058,"bstar":0.00082436,"rev_number":59873,"period_min":115.75330915198,"perigee_km":1475.7383609458,"apogee_km":1503.4358969693,"semimajor_km":7867.7241289575,"source":"CELESTRAK","updated_at":"2026-05-25T13:37:55.334681Z"}}